{"data":{"norad_id":63843,"intl_designator":"2025-093H","name":"STARLINK-33777","alt_names":[],"object_type":"PAYLOAD","status":"ACTIVE","operator":null,"country":"US","launch_date":"2025-05-07","launch_site_code":"AFETR","launch_vehicle":null,"mission":null,"orbit_class":"UNKNOWN","rcs_meters":null,"size_class":null,"mass_kg":null,"dimensions":null,"purposes":["comms"],"wikipedia_slug":null,"has_3d_model":false,"image_url":null,"decayed_at":null,"tle_current":{"epoch":"2026-09-20T17:26:57.434496Z","epoch_age_seconds":130285,"freshness":"FRESH","line1":"1 63843U 25093H   26263.72705364  .00009353  00000+0  34892-3 0  9994","line2":"2 63843  43.0002  56.1698 0001617 279.8499  80.2170 15.27586028 77807","mean_motion":15.27586028,"eccentricity":0.0001617,"inclination_deg":43.0002,"raan_deg":56.1698,"arg_perigee_deg":279.8499,"mean_anomaly_deg":80.217,"bstar":0.00034892,"rev_number":7780,"period_min":94.26637672808,"perigee_km":481.92159522539,"apogee_km":484.1404969715,"semimajor_km":6861.1680460984,"source":"CELESTRAK","updated_at":"2026-09-21T09:00:35.132365Z"}}}